Location: Ergnies
(50.0854°N, 2.0375°E)
Time: 20:00:07
(UTC+00:00)

Cosmos 1833 Rocket - Pass Details

Date: 14 January 2026
Orbit: 832 x 838 km, 71.0° (Epoch: 13 February)

Event Time Altitude Azimuth Distance (km) Brightness Sun altitude
Exits shadow 03:43:27 29° 86° (E) 1,488 4.4 -38.0°
Drops below altitude 10° 03:46:47 10° 115° (ESE) 2,446 5.6 -37.5°
Sets 03:49:25 0° 124° (SE) 3,375 6.4 -37.1°
